Location: Helstorf
(52.5868°N, 9.5862°E)
Time: 04:59:35
(UTC+00:00)

ATLAS 2AS CENTAUR R/B - Pass Details

Date: 15 May 2026
Orbit: 1053 x 1158 km, 63.7° (Epoch: 6 June)

Event Time Altitude Azimuth Distance (km) Brightness Sun altitude
Rises 22:43:03 0° 302° (WNW) 3,854 6.2 -18.0°
Reaches altitude 10° 22:45:56 10° 311° (NW) 2,889 5.7 -18.0°
Maximum altitude 22:52:15 39° 19° (NNE) 1,545 4.1 -18.1°
Drops below altitude 10° 22:58:32 10° 87° (E) 2,876 4.9 -18.2°
Sets 23:01:23 0° 95° (E) 3,834 5.5 -18.3°
